Showing default

SUPERVIEW NEO 3-02, 63208

Orbit data source: Space-Track

SUPERVIEW NEO 3-02, 63208 is a payload satellite owned by Siwei (CN) in SSO that was launched on Sat, 15 Mar 2025 UTC via a CHANG ZHENG 2D launch vehicle from the Jiuquan Satellite Launch Center, China (JSC). Payload-class satellites include a variety of spacecraft equipped with specific instruments for various scientific and technological missions. These include communications satellites like Starlink; space stations such as the ISS; scientific satellites like the Hubble; Earth observation satellites from companies like Planet Labs, Umbra, and HawkEye 360; GPS; miniature CubeSats for education and research; and military/defense satellites.

Loading next visibility...
Identifier
63208, 2025-051A
Orbit
SSO
Country
Flag of CNCN / PRC
Related business
Manufacturer
SAST
Mission
Operational Commercial Imaging
Bus & Motor
SIWEI, Unknown motor
Mass
~1,000 kg wet, ~700 kg dry
Launch date (UTC)
2025-03-15 (1 year ago)
Launch vehicle
CHANG ZHENG 2D
Launch site
Jiuquan Satellite Launch Center, China (JSC)
Object type
Payload
Rocket body
Debris
Shape & HBR
Box, 3.0 m
Radar Cross Section
0.375 m², Large (>1 m²)

Expand to show TLE details & history
Last TLE update: 8 hours ago

TLE from 8 hours ago
0 SUPERVIEW NEO 3-02
1 63208U 25051A   26119.29344672  .00009846  00000-0  40647-3 0  9999
2 63208  97.4524 198.8563 0001323  69.7053 290.4326 15.24229446 62396
Epoch: 2026-04-29T07:02Z
TLE epoch observation values (Epoch: 2026-04-29T07:02:33.796Z)
Latitude
-0.00007°
Longitude
-124.04099°
Altitude
495.878 km
Speed
7.617 km/s
True Right ascension
13h 15m 25s
True Declination
0° 00' 00"
Sunlit
Object was in full shadow at epoch
Visualization orbit readout
Latitude
Unknown
Longitude
Unknown
Altitude
Unknown
Speed
Unknown
Apparent Right ascension
Unknown
Apparent Declination
Unknown
Sunlit
N/A
Visualization observer readout
Local Sidereal Time
22:28:15
Azimuth
Unknown
Elevation
Unknown
Doppler factor
Unknown
Orbital elements
Apogee altitude
490.971 km
Perigee altitude
489.154 km
Semi-major axis
6,868.199 km
Eccentricity
0.00013
Inclination
97.4524°
RAAN
198.8563°
Arg. of periapsis
69.7053°
True anomaly
290.41839°
Mean anomaly
290.4326°
Eccentric anomaly
290.4255°
Mean motion
3.81311 °/min
Orbital period
94.41 mins
BSTAR
0.00040647
Loading maneuver chart data...
Computing Atmospheric mass density...
Loading historical data...
Loading historical data...
Loading historical data...
Loading historical data...
Loading historical data...
Loading historical data...
Loading historical data...
Other satellites on launch #51 in the year 2025 (2025-03-15 UTC)

Documentation

Showing up to 5 results
|